アトラス彗星

C/2019 T4 ( ATLAS )

English version
Home page
Updated on January 20, 2020

---------------------------------------------------------------------

・ プロフィール

発見日 2019年10月9日
発見光度 19.3等
発見者 Asteroid Terrestrial-Impact Last Alert System (ATLAS) search program

・ 写真集

・ 軌道要素

Epoch 2022 May 21.0 TT = JDT 2459720.5
T 2022 June  9.24030 TT                                 Williams
q   4.2428794            (2000.0)            P               Q
z  +0.0010249      Peri.  351.19928     -0.95992430     +0.05603361
 +/-0.0000112      Node   199.94012     -0.18195605     -0.86982944
e   0.9956515      Incl.   53.62874     -0.21316033     +0.49016017
From 35 observations 2019 Feb. 5-Dec. 28, mean residual 0".3.

・ 星図

・ 光度変化

        m1 = -9.0 + 5 logΔ + 25   log r  [    ,-975]  (              〜2019年10月 8日)
        m1 =  5.0 + 5 logΔ + 10.0 log r  [-975,    ]  (2019年10月 8日〜              )

---------------------------------------------------------------------

軌道要素はM.P.E.C. 2020-A105に掲載されたものです。
星図はステラナビゲータ Ver.10 (アストロアーツ) で作成したものです。
光度グラフはComet for Windowsで作成したものです。

---------------------------------------------------------------------

Copyright(C) Seiichi Yoshida (comet@aerith.net). All rights reserved.